KB1JDX Weather Reports


time (UTC)temp
F
wind
direction
speed
knots
gust
knots
rain 1hr
in
rain 24hr
in
rain mn
in
humidity
%
barometer
mb
20260506201927 59 186 7.0 11.3 0.05 0.08 0.08 100 1007.5
20260506200035 59 207 0.0 11.3 0.03 0.03 0.03 100 1007.7
20260506194035 59 153 0.0 11.3 0.03 0.03 0.03 4 1007.8
20260506192240 59 181 4.3 11.3 0.03 0.03 0.03 10 1008.0
20260506192037 59 181 4.3 11.3 0.03 0.03 0.03 10 1008.0
20260506191927 59 188 3.5 11.3 0.03 0.03 0.03 11 1007.9
20260506190035 60 206 7.8 16.5 0.00 0.00 0.00 20 1007.9
20260506184035 60 203 0.0 16.5 0.00 0.00 0.00 30 1008.2
20260506182035 62 163 0.0 16.5 0.00 0.00 0.00 48 1008.6
20260506181927 62 208 6.1 16.5 0.00 0.00 0.00 48 1008.6
20260506180035 63 201 0.0 17.4 0.00 0.00 0.00 59 1008.7
20260506174038 64 199 7.0 17.4 0.00 0.00 0.00 62 1008.8
20260506172035 66 227 13.9 17.4 0.00 0.00 0.00 64 1009.0
20260506171927 66 211 2.6 17.4 0.00 0.00 0.00 64 1009.0
20260506170035 66 229 0.0 15.6 0.00 0.00 0.00 64 1008.8
20260506164036 67 167 1.7 15.6 0.00 0.00 0.00 65 1009.0
20260506162037 67 170 3.5 15.6 0.00 0.00 0.00 65 1009.2
20260506161927 67 202 9.6 15.6 0.00 0.00 0.00 65 1009.3
20260506160035 68 180 8.7 10.4 0.00 0.00 0.00 64 1009.5
20260506154036 68 209 0.0 10.4 0.00 0.00 0.00 64 1009.4
20260506152037 68 179 1.7 10.4 0.00 0.00 0.00 64 1009.6
20260506151927 68 147 1.7 10.4 0.00 0.00 0.00 64 1009.6
20260506150036 68 234 0.9 15.6 0.00 0.00 0.00 64 1009.8
20260506144036 67 185 0.0 15.6 0.00 0.00 0.00 64 1009.8
20260506142035 66 199 0.0 15.6 0.00 0.00 0.00 64 1009.8
20260506141926 66 184 0.9 15.6 0.00 0.00 0.00 63 1009.8
20260506140035 66 188 6.1 9.6 0.00 0.00 0.00 63 1009.8
20260506134037 65 176 0.0 9.6 0.00 0.00 0.00 61 1009.7
20260506132035 65 208 0.0 9.6 0.00 0.00 0.00 60 1009.9
20260506131927 65 175 6.1 9.6 0.00 0.00 0.00 60 1009.9
20260506130035 64 171 0.0 12.2 0.00 0.00 0.00 56 1010.4
20260506124036 62 187 8.7 12.2 0.00 0.00 0.00 45 1010.3
20260506122035 61 234 8.7 12.2 0.00 0.00 0.00 40 1010.4
20260506121926 61 205 4.3 12.2 0.00 0.00 0.00 40 1010.4
20260506120036 60 185 0.0 8.7 0.00 0.00 0.00 34 1010.4
20260506114036 59 180 0.9 8.7 0.00 0.00 0.00 25 1010.8
20260506112035 58 208 0.0 8.7 0.00 0.00 0.00 24 1010.8
20260506111926 58 218 0.0 8.7 0.00 0.00 0.00 24 1010.8
20260506110036 58 185 0.0 9.6 0.00 0.00 0.00 22 1010.7
20260506104034 58 188 0.0 9.6 0.00 0.00 0.00 24 1010.8
20260506102036 58 188 0.0 9.6 0.00 0.00 0.00 26 1010.6
20260506101926 58 189 0.0 9.6 0.00 0.00 0.00 26 1010.6
20260506100036 58 216 0.0 9.6 0.00 0.00 0.00 27 1010.5
20260506094035 58 183 0.0 9.6 0.00 0.00 0.00 30 1010.5
20260506092036 58 209 0.0 9.6 0.00 0.00 0.00 32 1010.5
20260506091926 58 209 0.0 9.6 0.00 0.00 0.00 32 1010.5
20260506090035 58 208 8.7 7.0 0.00 0.00 0.00 33 1010.7
20260506084035 58 174 0.0 7.0 0.00 0.00 0.00 34 1010.7
20260506082035 58 205 0.0 7.0 0.00 0.00 0.00 35 1010.9
20260506081926 58 227 0.0 7.0 0.00 0.00 0.00 35 1010.9
20260506072035 59 205 0.0 8.7 0.00 0.00 0.00 40 1011.0
20260506071926 59 191 0.0 8.7 0.00 0.00 0.00 41 1011.0
20260506062035 60 188 0.0 9.6 0.00 0.00 0.00 51 1010.8
20260506061926 60 182 0.0 9.6 0.00 0.00 0.00 51 1010.8
20260506044035 62 250 1.7 12.2 0.00 0.00 0.00 62 1011.4
20260506042035 62 175 0.0 12.2 0.00 0.00 0.00 63 1011.4
20260506041926 62 226 4.3 12.2 0.00 0.00 0.00 63 1011.5
20260506040035 62 194 0.0 13.0 0.00 0.00 0.00 64 1011.5
20260506034035 62 190 0.0 13.0 0.00 0.00 0.00 64 1011.4
20260506032035 62 191 1.7 13.0 0.00 0.00 0.00 65 1011.2
20260506031926 62 194 0.0 13.0 0.00 0.00 0.00 65 1011.2
20260506030035 61 195 4.3 8.7 0.00 0.00 0.00 65 1011.3
20260506024034 61 206 0.0 8.7 0.00 0.00 0.00 64 1011.2
20260506022035 61 197 0.0 8.7 0.00 0.00 0.00 64 1011.2
20260506021926 61 197 0.0 8.7 0.00 0.00 0.00 64 1011.1
20260506020034 61 188 0.0 7.8 0.00 0.00 0.00 64 1011.1
20260506014036 61 196 0.0 7.8 0.00 0.00 0.00 64 1011.1
20260506012034 61 178 0.0 7.8 0.00 0.00 0.00 64 1010.9
20260506011926 61 180 0.0 7.8 0.00 0.00 0.00 64 1010.9
20260506010034 61 175 0.0 12.2 0.00 0.00 0.00 65 1010.8
20260506004034 61 174 0.0 12.2 0.00 0.00 0.00 65 1010.7
20260506002034 62 207 0.0 12.2 0.00 0.00 0.00 65 1010.1
20260506001926 62 207 0.0 12.2 0.00 0.00 0.00 65 1010.1
20260506000034 62 173 0.0 17.4 0.00 0.00 0.00 65 1009.8
20260505234034 63 194 7.0 17.4 0.00 0.00 0.00 65 1009.6
20260505232034 64 201 13.9 17.4 0.00 0.00 0.00 64 1009.3
20260505231926 64 163 4.3 17.4 0.00 0.00 0.00 64 1009.2
20260505230035 65 210 0.0 21.7 0.00 0.00 0.00 64 1008.7
20260505224034 67 173 0.0 21.7 0.00 0.00 0.00 62 1008.7
20260505222034 68 204 4.3 21.7 0.00 0.00 0.00 60 1008.7
20260505221926 68 186 1.7 21.7 0.00 0.00 0.00 59 1008.7
20260505220034 69 176 4.3 19.1 0.00 0.00 0.00 57 1008.6
20260505214035 70 191 5.2 19.1 0.00 0.00 0.00 55 1008.5
20260505212034 71 161 0.0 19.1 0.00 0.00 0.00 55 1008.4
20260505211926 71 204 10.4 19.1 0.00 0.00 0.00 55 1008.4
20260505210036 71 185 4.3 22.6 0.00 0.00 0.00 55 1008.3
20260505204036 72 187 0.9 22.6 0.00 0.00 0.00 54 1008.3